#timestamp,LO_Frequency,Hit,StdDev 
1637053215.7,286046995.3,N
1637053235.5,286046993.8,P
1637053255.3,286046994.5,Y
1637053275.2,286046999.4,P
1637053295.9,286046996.6,N
1637053315.7,286046997.2,N
1637053335.6,286046999.2,N
1637053355.4,286046996.7,N
1637053375.2,286046993.9,Y
1637053395.1,286046996.2,P
1637053396.0,286046996.2,P
1637053415.8,286046993.3,P
1637053435.6,286046994.6,Y
1637053455.5,286046994.9,P
1637053475.3,286046995.8,P
1637053495.1,286046996.0,P
1637053515.9,286046992.2,Y
1637053565.7,286046993.9,E
1637053575.6,286046994.9,N
1637053595.5,286046998.6,P
1637053615.3,286046996.8,N
1637053635.1,286046995.7,N
1637053655.9,286046995.4,Y
1637053675.7,286046997.0,P
1637053695.5,286046996.2,P
1637053715.4,286046993.8,P
1637053735.2,286046993.9,Y
1637053755.1,286046998.5,P
1637053756.0,286046998.5,N
1637053775.8,286047001.0,N
1637053795.6,286046998.9,N
1637053815.5,286046998.9,N
1637053835.3,286046998.0,N
1637053855.1,286046993.4,Y
1637053875.9,286046993.8,P
1637053895.7,286046994.5,N
1637053915.5,286046992.5,P
1637053935.4,286046989.2,Y
1637053955.2,286046990.1,P
1637053975.0,286046988.5,P
1637053975.9,286046988.5,P
1637053995.8,286046986.9,Y
1637054015.6,286046993.4,P
1637054035.4,286046993.0,P
1637054055.3,286046990.4,P
1637054075.1,286046989.4,Y
1637054095.8,286046996.1,P
1637054115.7,286046994.7,N
1637054135.5,286046991.9,P
1637054155.3,286046993.1,Y
1637054175.2,286046996.4,P
1637054195.0,286046993.7,P
1637054195.9,286046993.7,P
1637054215.7,286046993.2,Y
1637054235.6,286046993.3,P
1637054255.4,286046992.0,P
1637054275.2,286046990.8,P
1637054295.1,286046989.2,Y
1637054296.0,286046989.2,P
1637054315.8,286046991.8,P
1637054335.6,286046993.0,P
1637054355.5,286046993.0,Y
1637054375.3,286047001.0,P
1637054395.1,286046999.5,N
1637054415.9,286046996.0,N
1637054435.7,286046993.9,N
1637054455.5,286046994.4,N
1637054475.4,286046992.3,N
1637054495.2,286046990.5,N
1637054515.0,286046990.3,N
1637054516.0,286046990.3,N
1637054535.8,286046990.8,N
1637054555.6,286046991.6,N
1637054575.4,286046989.8,N
1637054595.3,286046988.0,Y
1637054615.1,286046991.7,P
1637054635.9,286046992.8,P
1637054655.7,286046990.8,P
1637054675.5,286046991.4,Y
1637054695.4,286046999.5,P
1637054715.2,286046997.9,N
1637054735.0,286046993.5,N
1637054735.9,286046993.5,N
1637054755.8,286046992.3,N
1637054775.6,286046993.1,N
1637054795.4,286046992.7,N
1637054815.3,286046990.7,Y
1637054835.1,286046995.2,P
1637054836.0,286046995.2,P
1637054855.8,286046995.8,P
1637054875.7,286046996.0,Y
1637054895.5,286046999.1,P
1637054915.3,286046997.7,N
1637054935.2,286046999.4,N
1637054955.9,286046999.2,N
1637054975.7,286046997.1,N
1637054995.6,286046995.3,Y
1637055015.4,286046996.9,P
1637055035.2,286046997.0,P
1637055055.1,286046995.6,P
1637055056.0,286046995.6,Y
1637055075.8,286046998.4,P
1637055095.6,286047001.0,N
1637055115.5,286047001.1,N
1637055135.3,286046997.1,N
1637055155.1,286046997.9,N
1637055175.9,286046997.0,N
1637055195.7,286046996.9,N
1637055215.5,286046995.0,Y
1637055235.4,286046999.4,P
1637055255.2,286046999.0,N
1637055275.0,286046999.0,N
1637055275.9,286046999.0,N
1637055295.8,286046998.5,Y
1637055315.6,286047002.7,P
1637055335.4,286047001.8,N
1637055355.3,286047002.2,N
1637055375.1,286047002.5,N
1637055395.8,286047002.2,N
1637055415.7,286047002.4,N
1637055435.5,286046999.8,N
1637055455.3,286046998.3,N
1637055475.2,286046998.1,N
1637055495.0,286046999.9,N
1637055495.9,286046999.9,N
1637055515.7,286047000.1,N
1637055535.6,286047000.7,N
1637055555.4,286046999.9,N
1637055575.2,286047002.2,N
1637055595.1,286047001.7,N
1637055596.0,286047001.7,N
1637055615.8,286047002.2,N
1637055635.6,286047002.2,N
1637055655.5,286047004.2,N
1637055675.3,286047004.2,N
1637055695.1,286047004.3,N
1637055715.9,286047004.4,N
1637055735.7,286047003.7,N
1637055755.5,286047004.2,N
1637055775.4,286047003.1,N
1637055795.2,286047005.5,N
1637055815.0,286047007.0,Y
1637055815.9,286047007.0,P
1637055835.8,286047005.8,N
1637055855.6,286047003.3,N
1637055875.4,286047003.3,N
1637055895.3,286047005.5,N
1637055915.1,286047005.8,Y
1637055935.9,286046998.2,P
1637055955.7,286047000.8,N
1637055975.5,286047000.3,N
1637055995.4,286047000.3,N
1637056015.2,286047000.0,N
1637056035.0,286046999.8,N
1637056035.9,286046999.8,N
1637056055.8,286047002.4,N
1637056075.6,286047002.2,N
1637056095.4,286047002.4,N
1637056115.3,286046999.8,N
1637056135.1,286047001.9,N
1637056136.0,286047001.9,N
1637056185.8,286047002.1,E
1637056195.8,286047000.5,N
1637056215.6,286046998.2,P
1637056235.4,286047000.7,N
1637056255.3,286047000.7,N
1637056275.1,286047000.0,N
1637056276.0,286047000.0,N
1637056295.8,286047002.7,Y
1637056315.7,286046999.7,P
1637056335.5,286047000.9,P
1637056355.3,286047000.7,N
1637056375.2,286046999.9,N
1637056395.9,286047002.8,Y
1637056415.7,286047000.7,P
1637056435.6,286046999.8,N
1637056455.4,286047002.0,P
1637056475.2,286047002.6,Y
1637056495.1,286047005.6,P
1637056496.0,286047005.6,N
1637056515.8,286047003.0,N
1637056535.6,286047003.3,N
1637056555.5,286047007.2,Y
1637056575.3,286047004.4,P
1637056595.1,286047002.2,P
1637056615.9,286047002.6,N
1637056635.7,286047001.2,N
1637056655.5,286046995.6,Y
1637056675.4,286046992.6,P
1637056695.2,286046990.4,N
1637056715.0,286046991.6,N
1637056716.0,286046991.6,N
1637056735.8,286046987.3,N
1637056755.6,286046987.6,N
1637056775.5,286046985.6,Y
1637056795.3,286046994.2,P
